DW1595 Weather Reports


Display with metric or nautical units.
time (UTC)temp
F
wind
direction
speed
MPH
gust
MPH
rain 1hr
in
rain 24hr
in
rain mn
in
humidity
%
barometer
mb
20190617154057 62 202 0.0 0.0 0.00 0.00 0.00 88 1010.6
20190617153054 62 202 0.0 0.0 0.00 0.00 0.00 88 1010.6
20190617152042 62 202 0.0 0.0 0.00 0.00 0.00 88 1010.5
20190617151053 62 202 0.0 0.0 0.00 0.00 0.00 88 1010.4
20190617150044 62 202 0.0 0.0 0.00 0.00 0.00 89 1010.4
20190617145057 62 202 0.0 0.0 0.00 0.00 0.00 89 1010.3
20190617144054 62 202 0.0 0.0 0.00 0.00 0.00 90 1010.2
20190617143048 62 202 0.0 0.0 0.00 0.00 0.00 90 1010.2
20190617142038 61 202 0.0 0.0 0.00 0.00 0.00 90 1010.1
20190617141052 61 202 0.0 0.0 0.00 0.00 0.00 90 1010.0
20190617140043 61 202 0.0 0.0 0.00 0.00 0.00 91 1010.0
20190617135055 61 202 0.0 0.0 0.00 0.00 0.00 91 1009.9
20190617134045 61 202 0.0 0.0 0.00 0.00 0.00 91 1009.9
20190617133103 61 202 0.0 0.0 0.00 0.00 0.00 91 1009.9
20190617133015 61 202 0.0 0.0 0.00 0.00 0.00 91 1009.0
20190617132052 61 202 0.0 0.0 0.00 0.00 0.00 90 1009.9
20190617131043 61 202 0.0 0.0 0.00 0.00 0.00 90 1009.9
20190617130101 61 202 0.0 0.0 0.00 0.00 0.00 90 1009.9
20190617125048 61 202 0.0 0.0 0.00 0.00 0.00 90 1009.8
20190617124038 61 202 0.0 0.0 0.00 0.00 0.00 90 1009.6
20190617123051 61 202 0.0 0.0 0.00 0.00 0.00 92 1009.6
20190617122040 61 202 0.0 0.0 0.00 0.00 0.00 90 1009.4
20190617121057 61 202 0.0 0.0 0.00 0.00 0.00 90 1009.3
20190617120125 61 202 0.0 0.0 0.00 0.00 0.00 90 1009.3
20190617120034 61 202 0.0 0.0 0.00 0.00 0.00 90 1008.5
20190617115041 61 202 0.0 0.0 0.00 0.00 0.00 90 1009.3
20190617114054 61 202 0.0 0.0 0.00 0.00 0.00 90 1009.2
20190617113048 61 202 0.0 0.0 0.00 0.00 0.00 90 1009.2
20190617112058 61 202 0.0 0.0 0.00 0.00 0.00 89 1009.3
20190617111052 61 202 0.0 0.0 0.00 0.00 0.00 89 1009.3
20190617110044 61 202 0.0 0.0 0.00 0.00 0.00 89 1009.3
20190617105051 61 202 0.0 0.0 0.00 0.00 0.00 89 1009.3
20190617104043 61 202 0.0 0.0 0.00 0.00 0.00 89 1009.3
20190617103101 62 202 0.0 0.0 0.00 0.00 0.00 88 1009.3
20190617103029 61 202 0.0 0.0 0.00 0.00 0.00 88 1008.5
20190617102049 62 202 0.0 0.0 0.00 0.00 0.00 89 1009.4
20190617101508 61 202 0.0 0.0 0.00 0.00 0.00 88 1008.5
20190617101058 62 202 0.0 0.0 0.00 0.00 0.00 88 1009.5
20190617100049 62 202 0.0 0.0 0.00 0.00 0.00 88 1009.5
20190617095058 62 202 0.0 0.0 0.00 0.00 0.00 88 1009.4
20190617094053 62 202 0.0 0.0 0.00 0.00 0.00 88 1009.4
20190617093047 62 202 0.0 0.0 0.00 0.00 0.00 88 1009.4
20190617092056 62 202 0.0 0.0 0.00 0.00 0.00 88 1009.6
20190617091047 62 202 1.0 0.0 0.00 0.00 0.00 87 1009.8
20190617090040 62 202 0.0 0.0 0.00 0.00 0.00 87 1009.8
20190617085055 62 202 0.0 0.0 0.00 0.00 0.00 87 1009.8
20190617084050 62 202 0.0 0.0 0.00 0.00 0.00 87 1009.9
20190617083043 62 202 0.0 0.0 0.00 0.00 0.00 87 1009.9
20190617082055 62 202 0.0 0.0 0.00 0.00 0.00 87 1009.9
20190617081049 63 202 1.0 0.0 0.00 0.00 0.00 86 1009.9
20190617080044 63 202 1.0 0.0 0.00 0.00 0.00 86 1009.9
20190617075055 63 202 1.0 0.0 0.00 0.00 0.00 85 1010.0
20190617074050 63 202 1.0 0.0 0.00 0.00 0.00 85 1010.1
20190617073042 63 203 1.0 0.0 0.00 0.00 0.00 84 1010.1
20190617072053 63 203 1.0 0.0 0.00 0.00 0.00 84 1010.0
20190617071051 64 203 0.0 0.0 0.00 0.00 0.00 84 1010.1
20190617070116 64 204 0.0 0.0 0.00 0.00 0.00 84 1010.1
20190617070023 63 204 0.0 0.0 0.00 0.00 0.00 84 1009.2
20190617065050 64 204 1.0 0.0 0.00 0.00 0.00 84 1010.1
20190617064046 64 204 1.0 0.0 0.00 0.00 0.00 83 1010.2
20190617063100 64 204 1.0 0.0 0.00 0.00 0.00 83 1010.2
20190617063021 63 203 1.0 0.0 0.00 0.00 0.00 83 1009.4
20190617062053 64 204 0.0 0.0 0.00 0.00 0.00 83 1010.3
20190617061044 64 203 1.0 0.0 0.00 0.00 0.00 83 1010.3
20190617060054 64 202 0.0 0.0 0.00 0.00 0.00 83 1010.3
20190617055040 64 202 0.0 0.0 0.00 0.00 0.00 82 1010.3
20190617054055 64 202 1.0 0.0 0.00 0.00 0.00 82 1010.4
20190617053102 64 202 1.0 0.0 0.00 0.00 0.00 82 1010.4
20190617053006 64 202 1.0 0.0 0.00 0.00 0.00 82 1009.6
20190617052050 65 202 0.0 0.0 0.00 0.00 0.00 82 1010.4
20190617051043 65 202 0.0 0.0 0.00 0.00 0.00 82 1010.3
20190617050059 65 202 1.0 0.0 0.00 0.00 0.00 82 1010.3
20190617045048 65 200 1.0 0.0 0.00 0.00 0.00 82 1010.0
20190617044502 64 204 0.0 0.0 0.00 0.00 0.00 81 1009.1
20190617044058 65 197 0.0 0.0 0.00 0.00 0.00 81 1009.8
20190617043050 65 204 1.0 0.0 0.00 0.00 0.00 81 1009.8
20190617042041 65 206 1.0 0.0 0.00 0.00 0.00 81 1009.8
20190617041053 65 155 1.0 0.0 0.00 0.00 0.00 81 1009.7
20190617040044 65 196 1.0 0.0 0.00 0.00 0.00 81 1009.7
20190617035058 65 259 1.0 0.0 0.00 0.00 0.00 81 1009.6
20190617034049 65 250 0.0 0.0 0.00 0.00 0.00 80 1009.3
20190617033045 66 248 0.0 0.0 0.00 0.00 0.00 80 1009.3
20190617032055 66 234 1.0 0.0 0.00 0.00 0.00 79 1009.3
20190617031045 67 236 1.0 0.0 0.00 0.00 0.00 78 1009.2
20190617030114 67 269 1.0 0.0 0.00 0.00 0.00 77 1009.2
20190617030010 67 269 1.0 0.0 0.00 0.00 0.00 77 1008.4
20190617025054 68 242 1.0 0.0 0.00 0.00 0.00 76 1009.2
20190617024044 68 286 1.0 0.0 0.00 0.00 0.00 75 1009.1
20190617023100 69 355 1.0 0.0 0.00 0.00 0.00 73 1009.1
20190617022045 70 238 1.0 0.0 0.00 0.00 0.00 72 1008.8
20190617021058 70 256 1.0 0.0 0.00 0.00 0.00 71 1008.7
20190617020048 71 205 1.0 0.0 0.00 0.00 0.00 71 1008.7
20190617015058 71 223 2.0 0.0 0.00 0.00 0.00 70 1008.6
20190617014052 72 186 2.0 0.0 0.00 0.00 0.00 68 1008.5
20190617013046 73 210 3.0 0.0 0.00 0.00 0.00 67 1008.5
20190617012054 75 200 2.0 0.0 0.00 0.00 0.00 64 1008.2
20190617011046 75 298 1.0 0.0 0.00 0.00 0.00 62 1008.2
20190617010058 76 306 2.0 0.0 0.00 0.00 0.00 61 1008.2
20190617005047 76 192 2.0 0.0 0.00 0.00 0.00 60 1008.1
20190617004511 76 195 2.0 0.0 0.00 0.00 0.00 59 1007.3
20190617004059 77 196 2.0 0.0 0.00 0.00 0.00 59 1008.1
20190617003049 77 188 3.0 0.0 0.00 0.00 0.00 58 1008.1
20190617002040 78 200 2.0 0.0 0.00 0.00 0.00 57 1008.1
20190617001050 79 230 2.0 0.0 0.00 0.00 0.00 55 1008.2
20190617000045 79 234 2.0 0.0 0.00 0.00 0.00 56 1008.2
20190616235053 80 338 1.0 0.0 0.00 0.00 0.00 55 1008.2
20190616234043 80 227 2.0 0.0 0.00 0.00 0.00 55 1008.5
20190616233055 80 226 2.0 0.0 0.00 0.00 0.00 55 1008.5
20190616232044 80 244 1.0 0.0 0.00 0.00 0.00 55 1008.6
20190616231040 80 318 1.0 0.0 0.00 0.00 0.00 55 1008.6
20190616230053 79 215 2.0 0.0 0.00 0.00 0.00 56 1008.6
20190616225041 79 196 3.0 0.0 0.00 0.00 0.00 54 1008.7
20190616224053 79 198 2.0 0.0 0.00 0.00 0.00 55 1008.7
20190616223049 79 242 3.0 0.0 0.00 0.00 0.00 57 1008.7
20190616222041 80 194 2.0 0.0 0.00 0.00 0.00 56 1008.9
20190616221037 79 179 2.0 0.0 0.00 0.00 0.00 57 1009.1
20190616220126 79 183 2.0 0.0 0.00 0.00 0.00 56 1009.1
20190616220004 78 192 2.0 0.0 0.00 0.00 0.00 57 1008.2
20190616215049 78 184 3.0 0.0 0.00 0.00 0.00 59 1009.2
20190616214039 79 180 1.0 0.0 0.00 0.00 0.00 56 1009.3
20190616213059 79 290 2.0 0.0 0.00 0.00 0.00 58 1009.3
20190616212045 78 316 2.0 0.0 0.00 0.00 0.00 58 1009.4
20190616211056 78 203 2.0 0.0 0.00 0.00 0.00 58 1009.6
20190616210046 79 198 1.0 0.0 0.00 0.00 0.00 58 1009.6
20190616205058 78 199 2.0 0.0 0.00 0.00 0.00 58 1009.7
20190616204035 77 342 1.0 0.0 0.00 0.00 0.00 60 1009.8
20190616203052 77 237 1.0 0.0 0.00 0.00 0.00 62 1009.8
20190616202043 76 229 2.0 0.0 0.00 0.00 0.00 63 1009.8
20190616201126 76 216 1.0 0.0 0.00 0.00 0.00 64 1010.0
20190616200052 75 202 1.0 0.0 0.00 0.00 0.00 64 1010.0
20190616195048 74 203 1.0 0.0 0.00 0.00 0.00 66 1010.2
20190616194039 74 202 0.0 0.0 0.00 0.00 0.00 66 1010.3
20190616193053 73 198 2.0 0.0 0.00 0.00 0.00 66 1010.3
20190616192043 73 198 1.0 0.0 0.00 0.00 0.00 67 1010.3
20190616191057 73 182 2.0 0.0 0.00 0.00 0.00 66 1010.6
20190616190056 72 164 1.0 0.0 0.00 0.00 0.00 69 1010.6
20190616185047 71 182 1.0 0.0 0.00 0.00 0.00 71 1010.7
20190616184045 70 183 1.0 0.0 0.00 0.00 0.00 72 1010.7
20190616183059 70 188 2.0 0.0 0.00 0.00 0.00 72 1010.7
20190616182049 69 173 2.0 0.0 0.00 0.00 0.00 72 1010.7
20190616181044 69 222 1.0 0.0 0.00 0.00 0.00 75 1010.7
20190616180059 67 222 1.0 0.0 0.00 0.00 0.00 77 1010.7
20190616180019 67 223 1.0 0.0 0.00 0.00 0.00 77 1009.9
20190616175047 67 223 2.0 0.0 0.00 0.00 0.00 76 1010.6
20190616174039 66 223 0.0 0.0 0.00 0.00 0.00 80 1010.8
20190616173043 65 223 1.0 0.0 0.00 0.00 0.00 80 1010.8
20190616172054 64 223 1.0 0.0 0.00 0.00 0.00 82 1010.6
20190616171048 64 223 1.0 0.0 0.00 0.00 0.00 83 1010.7
20190616170115 64 223 0.0 0.0 0.00 0.00 0.00 82 1010.7
20190616170027 63 223 0.0 0.0 0.00 0.00 0.00 82 1009.9
20190616165051 64 223 0.0 0.0 0.00 0.00 0.00 83 1010.9
20190616164041 64 223 0.0 0.0 0.00 0.00 0.00 83 1010.9
20190616163057 64 223 0.0 0.0 0.00 0.00 0.00 83 1010.9
20190616162046 63 223 0.0 0.0 0.00 0.00 0.00 84 1010.9
20190616161039 63 223 0.0 0.0 0.00 0.00 0.00 84 1010.9
20190616160053 63 223 0.0 0.0 0.00 0.00 0.00 84 1010.9
20190616155039 63 223 0.0 0.0 0.00 0.00 0.00 84 1010.8